Location: Peebles
(55.6412°N, 3.1714°W)
Time: 08:43:45
(UTC+00:00)

DOVE 4 - Pass Details

Date: 30 September 2023
Orbit: 583 x 785 km, 97.8° (Epoch: 03 December)

Event Time Altitude Azimuth Distance (km) Brightness Sun altitude
Rises 23:38:57 0° 15° (NNE) 3,107 ? -34.7°
Reaches altitude 10° 23:41:11 10° 17° (NNE) 2,214 ? -34.8°
Enters shadow 23:42:45 21° 20° (NNE) 1,604 ? -34.9°
